Hlavní strana
METAR-TAF:

METAR-TAF

Letiště :

Parsons, Tennessee, Spojené státy americké

zeměpisná šířka: 35-39-23N, zeměpisná délka: 088-11-43W, výška: 149 m

Aktuální stav počasí

Zpráva byla vytvořena před 21 minutami, v 16:55 UTC
Západní vítr 6 kt
Teplota 6°C
Vlhkost vzduchu 93%
Tlak 1018 hPa
Viditelnost: 14.5 km
Zataženo ve výšce 1000 ft

METAR: KPVE 041655Z AUTO 27006KT 9SM OVC010 06/05 A3007 RMK A01

Čas: 11:16 (17:16 UTC)


TAF: chybějící

Stav a předpovědi počasí z více než 4 000 letišť (zprávy METAR a TAF).

Červené a žluté tečky na mapě představují dostupné meteorologické stanice.

Když kurzor umístíte na tečku, zobrazí se název stanice.

Pak kliknutím zobrazíte stav a předpověď počasí.

Chcete-li změnit mapu, kliknutím na zelené tlačítko se znaménkem +mapu přiblížíte, kliknutím na zelené tlačítko se znaménkem – mapu oddálíte a kliknutím na zelené šipky přejdete na sousední mapy.


METAR-TAF: